Location: Waco, TX
(31.5480°N, 97.1670°W)
Time: 01:56:58
(UTC-06:00)

ISS - Pass Details

Date: 02 February 2021
Orbit: 417 x 422 km, 51.6° (Epoch: 09 March)

Event Time Altitude Azimuth Distance (km) Brightness Sun altitude
Rises 13:59:19 0° 268° (W) 2,355 0.3 38.5°
Reaches altitude 10° 14:02:16 10° 296° (WNW) 1,496 -0.9 38.2°
Maximum altitude 14:04:00 13° 327° (NNW) 1,310 -1.4 38.1°
Drops below altitude 10° 14:05:44 10° 358° (N) 1,500 -1.3 37.9°
Sets 14:08:43 0° 27° (NNE) 2,368 -0.4 37.6°
